TimeCST,TemperatureF,Dew PointF,Humidity,Sea Level PressureIn,VisibilityMPH,Wind Direction,Wind SpeedMPH,Gust SpeedMPH,PrecipitationIn,Events,Conditions,WindDirDegrees,DateUTC
12:53 AM,55.0,46.0,72,30.27,10.0,SSE,3.5,-,N/A,,Clear,160,2012-11-19 06:53:00
1:53 AM,53.1,46.9,80,30.27,10.0,Calm,Calm,-,N/A,,Clear,0,2012-11-19 07:53:00
4:53 AM,48.0,45.0,89,30.26,10.0,Calm,Calm,-,N/A,,Clear,0,2012-11-19 10:53:00
5:53 AM,48.0,46.0,93,30.28,10.0,Calm,Calm,-,N/A,,Clear,0,2012-11-19 11:53:00
2:53 PM,75.0,42.1,31,30.19,10.0,SSE,3.5,-,N/A,,Clear,160,2012-11-19 20:53:00
3:53 PM,75.0,42.1,31,30.18,10.0,ESE,3.5,-,N/A,,Clear,110,2012-11-19 21:53:00
4:53 PM,72.0,45.0,38,30.18,10.0,ESE,3.5,-,N/A,,Clear,110,2012-11-19 22:53:00
5:53 PM,68.0,53.1,59,30.19,10.0,ESE,8.1,-,N/A,,Clear,120,2012-11-19 23:53:00
6:53 PM,64.9,55.9,73,30.22,10.0,SE,5.8,-,N/A,,Clear,130,2012-11-20 00:53:00
7:53 PM,63.0,55.9,78,30.23,10.0,SE,4.6,-,N/A,,Clear,140,2012-11-20 01:53:00
8:53 PM,60.1,55.0,83,30.23,10.0,SSE,3.5,-,N/A,,Clear,160,2012-11-20 02:53:00
9:53 PM,57.9,55.0,90,30.22,10.0,Calm,Calm,-,N/A,,Clear,0,2012-11-20 03:53:00
10:53 PM,55.0,54.0,96,30.22,3.0,Calm,Calm,-,N/A,,Clear,0,2012-11-20 04:53:00
11:03 PM,55.4,53.6,94,30.19,1.8,Calm,Calm,-,N/A,,Clear,0,2012-11-20 05:03:00
11:14 PM,55.4,55.4,100,30.19,0.8,Calm,Calm,-,N/A,,Clear,0,2012-11-20 05:14:00
11:19 PM,55.4,55.4,100,30.19,2.0,Calm,Calm,-,N/A,,Clear,0,2012-11-20 05:19:00
11:27 PM,57.2,55.4,94,30.19,3.0,Calm,Calm,-,N/A,,Clear,0,2012-11-20 05:27:00
11:34 PM,53.6,53.6,100,30.19,1.5,Calm,Calm,-,N/A,,Clear,0,2012-11-20 05:34:00
11:38 PM,53.6,53.6,100,30.19,0.5,Calm,Calm,-,N/A,Fog,Fog,0,2012-11-20 05:38:00
11:53 PM,55.9,55.0,97,30.21,0.2,Calm,Calm,-,N/A,Fog,Fog,0,2012-11-20 05:53:00